TimePST,TemperatureF,Dew PointF,Humidity,Sea Level PressureIn,VisibilityMPH,Wind Direction,Wind SpeedMPH,Gust SpeedMPH,PrecipitationIn,Events,Conditions,WindDirDegrees,DateUTC
12:53 AM,28.9,27.0,92,30.07,5.0,West,3.5,-,N/A,,Clear,280,2012-11-16 08:53:00
1:53 AM,30.0,28.0,92,30.06,7.0,West,3.5,-,N/A,,Partly Cloudy,270,2012-11-16 09:53:00
2:53 AM,30.0,28.0,92,30.05,10.0,Calm,Calm,-,N/A,,Mostly Cloudy,0,2012-11-16 10:53:00
3:53 AM,30.9,28.9,92,30.06,10.0,Calm,Calm,-,N/A,,Overcast,0,2012-11-16 11:53:00
4:53 AM,30.0,28.9,96,30.06,10.0,Calm,Calm,-,N/A,,Mostly Cloudy,0,2012-11-16 12:53:00
5:53 AM,28.9,27.0,92,30.06,10.0,West,4.6,-,N/A,,Overcast,270,2012-11-16 13:53:00
6:53 AM,30.0,28.0,92,30.07,10.0,West,3.5,-,N/A,,Overcast,260,2012-11-16 14:53:00
7:53 AM,32.0,30.0,92,30.07,10.0,Calm,Calm,-,N/A,,Mostly Cloudy,0,2012-11-16 15:53:00
8:53 AM,35.1,32.0,89,30.08,10.0,Calm,Calm,-,N/A,,Partly Cloudy,0,2012-11-16 16:53:00
9:53 AM,42.1,34.0,73,30.05,10.0,Calm,Calm,-,N/A,,Clear,0,2012-11-16 17:53:00
10:53 AM,46.0,33.1,61,30.03,10.0,Calm,Calm,-,N/A,,Clear,0,2012-11-16 18:53:00
11:53 AM,48.9,34.0,56,30.00,10.0,South,4.6,-,N/A,,Clear,170,2012-11-16 19:53:00
12:53 PM,51.1,34.0,52,29.98,10.0,SE,4.6,-,N/A,,Clear,140,2012-11-16 20:53:00
1:53 PM,52.0,32.0,47,29.96,10.0,ESE,5.8,-,N/A,,Overcast,120,2012-11-16 21:53:00
2:53 PM,52.0,30.9,45,29.95,10.0,SSE,4.6,-,N/A,,Overcast,150,2012-11-16 22:53:00
3:53 PM,48.9,32.0,52,29.98,10.0,South,12.7,-,N/A,,Overcast,170,2012-11-16 23:53:00
4:53 PM,46.0,34.0,63,29.98,10.0,SSE,8.1,-,0.00,Rain,Light Rain,150,2012-11-17 00:53:00
5:53 PM,45.0,35.1,68,29.99,10.0,Calm,Calm,-,N/A,,Overcast,0,2012-11-17 01:53:00
6:53 PM,42.1,37.0,82,30.00,10.0,NE,4.6,-,0.00,Rain,Light Rain,40,2012-11-17 02:53:00
7:53 PM,42.1,37.9,85,29.99,10.0,ENE,5.8,-,0.00,,Overcast,70,2012-11-17 03:53:00
8:53 PM,41.0,37.0,86,30.00,10.0,ENE,4.6,-,N/A,,Overcast,60,2012-11-17 04:53:00
9:53 PM,42.1,37.0,82,29.97,10.0,ENE,5.8,-,0.00,,Overcast,70,2012-11-17 05:53:00
10:53 PM,41.0,37.0,86,29.95,10.0,NE,5.8,-,0.00,,Overcast,50,2012-11-17 06:53:00
11:53 PM,41.0,36.0,82,29.93,10.0,NNE,5.8,-,N/A,,Overcast,20,2012-11-17 07:53:00